Time,TemperatureF,DewpointF,PressureIn,WindDirection,WindDirectionDegrees,WindSpeedMPH,WindSpeedGustMPH,Humidity,HourlyPrecipIn,Conditions,Clouds,dailyrainin,SoftwareType,DateUTC
2013-04-30 00:00:00,74.2,56.5,29.63,WSW,253,3.0,10.0,54,0.00,,---,0.00,VWS V14.01,2013-04-30 05:00:00,
2013-04-30 00:05:00,74.0,56.3,29.58,SSE,168,4.0,9.0,54,0.00,,---,0.00,VWS V14.01,2013-04-30 05:05:00,
2013-04-30 00:10:00,74.0,56.3,29.63,SSE,156,9.0,9.0,54,0.00,,---,0.00,VWS V14.01,2013-04-30 05:10:00,
2013-04-30 00:15:00,73.9,55.7,29.58,SSE,155,5.0,12.0,53,0.00,,---,0.00,VWS V14.01,2013-04-30 05:15:00,
2013-04-30 00:20:00,73.7,56.0,29.58,SSW,207,3.0,6.0,54,0.00,,---,0.00,VWS V14.01,2013-04-30 05:20:00,
2013-04-30 00:25:00,73.3,56.2,29.58,South,178,1.0,7.0,55,0.00,,---,0.00,VWS V14.01,2013-04-30 05:25:00,
2013-04-30 00:30:00,73.2,56.1,29.63,South,182,12.0,12.0,55,0.00,,---,0.00,VWS V14.01,2013-04-30 05:30:00,
2013-04-30 00:35:00,73.1,56.0,29.59,SSW,201,2.0,7.0,55,0.00,,---,0.00,VWS V14.01,2013-04-30 05:35:00,
2013-04-30 00:41:00,72.7,56.1,29.63,SW,220,3.0,5.0,56,0.00,,---,0.00,VWS V14.01,2013-04-30 05:41:00,
2013-04-30 00:46:00,72.6,56.0,29.63,WSW,257,1.0,2.0,56,0.00,,---,0.00,VWS V14.01,2013-04-30 05:46:00,
2013-04-30 00:51:00,72.4,56.3,29.59,West,259,2.0,6.0,57,0.00,,---,0.00,VWS V14.01,2013-04-30 05:51:00,
2013-04-30 00:56:00,72.4,56.8,29.59,WSW,241,5.0,8.0,58,0.00,,---,0.00,VWS V14.01,2013-04-30 05:56:00,
2013-04-30 01:00:00,72.2,56.6,29.59,SE,144,6.0,13.0,58,0.00,,---,0.00,VWS V14.01,2013-04-30 06:00:00,
2013-04-30 01:05:00,72.1,57.0,29.64,WSW,249,0.0,0.0,59,0.00,,---,0.00,VWS V14.01,2013-04-30 06:05:00,
2013-04-30 01:10:00,71.9,56.8,29.64,WSW,243,2.0,3.0,59,0.00,,---,0.00,VWS V14.01,2013-04-30 06:10:00,
2013-04-30 01:15:00,71.8,56.7,29.64,NW,321,0.0,5.0,59,0.00,,---,0.00,VWS V14.01,2013-04-30 06:15:00,
2013-04-30 01:20:00,71.8,56.7,29.64,South,176,8.0,8.0,59,0.00,,---,0.00,VWS V14.01,2013-04-30 06:20:00,
2013-04-30 01:25:00,71.7,57.1,29.59,WSW,247,2.0,8.0,60,0.00,,---,0.00,VWS V14.01,2013-04-30 06:25:00,
2013-04-30 01:30:00,71.5,56.9,29.59,West,266,6.0,14.0,60,0.00,,---,0.00,VWS V14.01,2013-04-30 06:30:00,
2013-04-30 01:35:00,71.4,56.8,29.64,West,266,4.0,4.0,60,0.00,,---,0.00,VWS V14.01,2013-04-30 06:35:00,
2013-04-30 01:40:00,71.3,56.7,29.64,NW,311,3.0,9.0,60,0.00,,---,0.00,VWS V14.01,2013-04-30 06:40:00,
2013-04-30 01:45:00,71.3,56.7,29.59,WSW,244,5.0,11.0,60,0.00,,---,0.00,VWS V14.01,2013-04-30 06:45:00,
2013-04-30 01:50:00,71.3,56.2,29.64,West,271,2.0,2.0,59,0.00,,---,0.00,VWS V14.01,2013-04-30 06:50:00,
2013-04-30 01:55:00,71.3,56.2,29.59,West,266,2.0,7.0,59,0.00,,---,0.00,VWS V14.01,2013-04-30 06:55:00,
2013-04-30 02:00:00,71.2,56.2,29.64,SW,230,3.0,4.0,59,0.00,,---,0.00,VWS V14.01,2013-04-30 07:00:00,
2013-04-30 02:05:00,71.0,56.0,29.64,SSW,204,5.0,5.0,59,0.00,,---,0.00,VWS V14.01,2013-04-30 07:05:00,
2013-04-30 02:10:00,70.8,56.2,29.64,WSW,249,4.0,6.0,60,0.00,,---,0.00,VWS V14.01,2013-04-30 07:10:00,
2013-04-30 02:15:00,70.8,55.8,29.59,West,276,3.0,12.0,59,0.00,,---,0.00,VWS V14.01,2013-04-30 07:15:00,
2013-04-30 02:20:00,70.7,56.2,29.64,SSE,157,7.0,7.0,60,0.00,,---,0.00,VWS V14.01,2013-04-30 07:20:00,
2013-04-30 02:25:00,70.6,56.1,29.59,WSW,241,10.0,10.0,60,0.00,,---,0.00,VWS V14.01,2013-04-30 07:25:00,
2013-04-30 02:30:00,70.5,56.0,29.60,West,280,1.0,7.0,60,0.00,,---,0.00,VWS V14.01,2013-04-30 07:30:00,
2013-04-30 02:35:00,70.3,55.8,29.60,SSW,203,3.0,7.0,60,0.00,,---,0.00,VWS V14.01,2013-04-30 07:35:00,
2013-04-30 02:40:00,70.2,55.7,29.60,West,266,3.0,9.0,60,0.00,,---,0.00,VWS V14.01,2013-04-30 07:40:00,
2013-04-30 02:45:00,70.1,56.0,29.64,South,182,4.0,4.0,61,0.00,,---,0.00,VWS V14.01,2013-04-30 07:45:00,
2013-04-30 02:50:00,70.0,56.0,29.65,West,266,1.0,7.0,61,0.00,,---,0.00,VWS V14.01,2013-04-30 07:50:00,
2013-04-30 02:55:00,69.9,55.8,29.65,West,266,4.0,5.0,61,0.00,,---,0.00,VWS V14.01,2013-04-30 07:55:00,
2013-04-30 03:00:00,69.7,55.7,29.60,SW,226,3.0,8.0,61,0.00,,---,0.00,VWS V14.01,2013-04-30 08:00:00,
2013-04-30 03:05:00,69.5,55.5,29.61,WSW,240,1.0,5.0,61,0.00,,---,0.00,VWS V14.01,2013-04-30 08:05:00,
2013-04-30 03:10:00,69.3,55.7,29.61,SW,229,2.0,4.0,62,0.00,,---,0.00,VWS V14.01,2013-04-30 08:10:00,
2013-04-30 03:15:00,69.1,55.5,29.66,WSW,249,4.0,8.0,62,0.00,,---,0.00,VWS V14.01,2013-04-30 08:15:00,
2013-04-30 03:20:00,69.0,55.5,29.66,South,188,0.0,1.0,62,0.00,,---,0.00,VWS V14.01,2013-04-30 08:20:00,
2013-04-30 03:25:00,68.8,55.7,29.66,SSW,210,3.0,8.0,63,0.00,,---,0.00,VWS V14.01,2013-04-30 08:25:00,
2013-04-30 03:30:00,68.6,55.5,29.61,SSW,211,0.0,3.0,63,0.00,,---,0.00,VWS V14.01,2013-04-30 08:30:00,
2013-04-30 03:35:00,68.4,55.8,29.62,SSW,205,1.0,6.0,64,0.00,,---,0.00,VWS V14.01,2013-04-30 08:35:00,
2013-04-30 03:40:00,68.3,55.7,29.62,West,266,2.0,6.0,64,0.00,,---,0.00,VWS V14.01,2013-04-30 08:40:00,
2013-04-30 03:45:00,68.1,55.9,29.62,South,188,1.0,9.0,65,0.00,,---,0.00,VWS V14.01,2013-04-30 08:45:00,
2013-04-30 03:50:00,68.0,55.8,29.66,SSE,157,1.0,11.0,65,0.00,,---,0.00,VWS V14.01,2013-04-30 08:50:00,
2013-04-30 03:55:00,67.9,55.7,29.62,WNW,295,1.0,13.0,65,0.00,,---,0.00,VWS V14.01,2013-04-30 08:55:00,
2013-04-30 04:00:00,67.8,55.6,29.66,SW,224,9.0,9.0,65,0.00,,---,0.00,VWS V14.01,2013-04-30 09:00:00,
2013-04-30 04:05:00,67.7,56.0,29.66,SSW,201,4.0,9.0,66,0.00,,---,0.00,VWS V14.01,2013-04-30 09:05:00,
2013-04-30 04:10:00,67.6,55.8,29.66,East,99,2.0,9.0,66,0.00,,---,0.00,VWS V14.01,2013-04-30 09:10:00,
2013-04-30 04:15:00,67.5,55.8,29.62,West,271,1.0,5.0,66,0.00,,---,0.00,VWS V14.01,2013-04-30 09:15:00,
2013-04-30 04:20:00,67.5,55.8,29.62,SW,234,3.0,8.0,66,0.00,,---,0.00,VWS V14.01,2013-04-30 09:20:00,
2013-04-30 04:25:00,67.5,55.8,29.67,West,276,2.0,12.0,66,0.00,,---,0.00,VWS V14.01,2013-04-30 09:25:00,
2013-04-30 04:30:00,67.5,55.8,29.62,SW,226,6.0,6.0,66,0.00,,---,0.00,VWS V14.01,2013-04-30 09:30:00,
2013-04-30 04:35:00,67.4,55.7,29.67,WSW,241,5.0,10.0,66,0.00,,---,0.00,VWS V14.01,2013-04-30 09:35:00,
2013-04-30 04:40:00,67.4,55.7,29.67,ESE,117,2.0,10.0,66,0.00,,---,0.00,VWS V14.01,2013-04-30 09:40:00,
2013-04-30 04:45:00,67.4,55.7,29.67,SSW,213,5.0,16.0,66,0.00,,---,0.00,VWS V14.01,2013-04-30 09:45:00,
2013-04-30 04:50:00,67.2,55.5,29.63,SSW,197,2.0,8.0,66,0.00,,---,0.00,VWS V14.01,2013-04-30 09:50:00,
2013-04-30 04:55:00,67.3,55.6,29.63,WSW,255,6.0,10.0,66,0.00,,---,0.00,VWS V14.01,2013-04-30 09:55:00,
2013-04-30 05:00:00,67.3,55.2,29.68,SSE,151,3.0,9.0,65,0.00,,---,0.00,VWS V14.01,2013-04-30 10:00:00,
2013-04-30 05:05:00,67.4,55.2,29.63,WSW,249,1.0,4.0,65,0.00,,---,0.00,VWS V14.01,2013-04-30 10:05:00,
2013-04-30 05:10:00,67.3,55.2,29.63,SSW,207,5.0,5.0,65,0.00,,---,0.00,VWS V14.01,2013-04-30 10:10:00,
2013-04-30 05:15:00,67.1,55.0,29.64,WSW,255,1.0,9.0,65,0.00,,---,0.00,VWS V14.01,2013-04-30 10:15:00,
2013-04-30 05:20:00,67.1,55.4,29.68,West,271,3.0,10.0,66,0.00,,---,0.00,VWS V14.01,2013-04-30 10:20:00,
2013-04-30 05:25:00,67.2,55.5,29.64,WNW,297,5.0,10.0,66,0.00,,---,0.00,VWS V14.01,2013-04-30 10:25:00,
2013-04-30 05:30:00,67.3,55.6,29.64,WSW,241,3.0,8.0,66,0.00,,---,0.00,VWS V14.01,2013-04-30 10:30:00,
2013-04-30 05:35:00,67.2,55.5,29.64,SSW,193,0.0,5.0,66,0.00,,---,0.00,VWS V14.01,2013-04-30 10:35:00,
2013-04-30 05:40:00,67.1,55.4,29.64,NW,315,0.0,4.0,66,0.00,,---,0.00,VWS V14.01,2013-04-30 10:40:00,
2013-04-30 05:45:00,67.1,55.4,29.68,SSW,211,2.0,9.0,66,0.00,,---,0.00,VWS V14.01,2013-04-30 10:45:00,
2013-04-30 05:50:00,67.2,55.9,29.64,SSW,207,1.0,9.0,67,0.00,,---,0.00,VWS V14.01,2013-04-30 10:50:00,
2013-04-30 05:55:00,67.2,55.9,29.69,NNW,327,1.0,10.0,67,0.00,,---,0.00,VWS V14.01,2013-04-30 10:55:00,
2013-04-30 06:00:00,67.1,55.8,29.69,SW,232,5.0,14.0,67,0.00,,---,0.00,VWS V14.01,2013-04-30 11:00:00,
2013-04-30 06:05:00,67.0,55.7,29.69,WSW,255,5.0,12.0,67,0.00,,---,0.00,VWS V14.01,2013-04-30 11:05:00,
2013-04-30 06:10:00,67.0,56.1,29.69,WSW,253,0.0,8.0,68,0.00,,---,0.00,VWS V14.01,2013-04-30 11:10:00,
2013-04-30 06:15:00,67.0,56.1,29.65,WSW,244,1.0,5.0,68,0.00,,---,0.00,VWS V14.01,2013-04-30 11:15:00,
2013-04-30 06:20:00,66.8,55.9,29.70,West,276,5.0,12.0,68,0.00,,---,0.00,VWS V14.01,2013-04-30 11:20:00,
2013-04-30 06:25:00,66.9,56.0,29.70,WNW,298,1.0,9.0,68,0.00,,---,0.00,VWS V14.01,2013-04-30 11:25:00,
2013-04-30 06:30:00,66.8,55.9,29.70,SW,222,8.0,9.0,68,0.00,,---,0.00,VWS V14.01,2013-04-30 11:30:00,
2013-04-30 06:35:00,66.7,56.2,29.66,West,266,3.0,9.0,69,0.00,,---,0.00,VWS V14.01,2013-04-30 11:35:00,
2013-04-30 06:40:00,66.7,56.2,29.70,North,5,0.0,6.0,69,0.00,,---,0.00,VWS V14.01,2013-04-30 11:40:00,
2013-04-30 06:45:00,66.6,56.1,29.66,West,266,3.0,6.0,69,0.00,,---,0.00,VWS V14.01,2013-04-30 11:45:00,
2013-04-30 06:50:00,66.6,56.1,29.71,WNW,290,5.0,5.0,69,0.00,,---,0.00,VWS V14.01,2013-04-30 11:50:00,
2013-04-30 06:55:00,66.8,56.3,29.71,WSW,242,0.0,8.0,69,0.00,,---,0.00,VWS V14.01,2013-04-30 11:55:00,
2013-04-30 07:00:00,67.0,56.5,29.71,South,188,3.0,10.0,69,0.00,,---,0.00,VWS V14.01,2013-04-30 12:00:00,
2013-04-30 07:05:00,67.1,56.6,29.71,SW,235,1.0,6.0,69,0.00,,---,0.00,VWS V14.01,2013-04-30 12:05:00,
2013-04-30 07:10:00,67.4,56.5,29.67,SW,229,11.0,11.0,68,0.00,,---,0.00,VWS V14.01,2013-04-30 12:10:00,
2013-04-30 07:15:00,67.6,56.7,29.71,West,266,2.0,11.0,68,0.00,,---,0.00,VWS V14.01,2013-04-30 12:15:00,
2013-04-30 07:20:00,67.8,56.5,29.72,SSW,205,3.0,13.0,67,0.00,,---,0.00,VWS V14.01,2013-04-30 12:20:00,
2013-04-30 07:25:00,68.1,56.7,29.71,WSW,253,1.0,14.0,67,0.00,,---,0.00,VWS V14.01,2013-04-30 12:25:00,
2013-04-30 07:30:00,68.4,57.0,29.71,SSW,205,7.0,9.0,67,0.00,,---,0.00,VWS V14.01,2013-04-30 12:30:00,
2013-04-30 07:35:00,68.6,56.8,29.67,SW,215,4.0,4.0,66,0.00,,---,0.00,VWS V14.01,2013-04-30 12:35:00,
2013-04-30 07:40:00,68.9,56.7,29.71,SW,228,5.0,19.0,65,0.00,,---,0.00,VWS V14.01,2013-04-30 12:40:00,
2013-04-30 07:45:00,69.2,57.0,29.72,South,188,7.0,13.0,65,0.00,,---,0.00,VWS V14.01,2013-04-30 12:45:00,
2013-04-30 07:50:00,69.4,57.1,29.71,South,176,4.0,8.0,65,0.00,,---,0.00,VWS V14.01,2013-04-30 12:50:00,
2013-04-30 07:55:00,69.6,56.9,29.72,West,271,6.0,12.0,64,0.00,,---,0.00,VWS V14.01,2013-04-30 12:55:00,
2013-04-30 08:00:00,69.9,56.8,29.67,WSW,244,8.0,11.0,63,0.00,,---,0.00,VWS V14.01,2013-04-30 13:00:00,
2013-04-30 08:05:00,70.3,56.7,29.67,SSE,147,7.0,12.0,62,0.00,,---,0.00,VWS V14.01,2013-04-30 13:05:00,
2013-04-30 08:10:00,70.5,56.9,29.67,West,271,3.0,11.0,62,0.00,,---,0.00,VWS V14.01,2013-04-30 13:10:00,
2013-04-30 08:15:00,70.8,57.2,29.72,West,276,4.0,10.0,62,0.00,,---,0.00,VWS V14.01,2013-04-30 13:15:00,
2013-04-30 08:20:00,71.1,57.0,29.72,SSW,203,11.0,13.0,61,0.00,,---,0.00,VWS V14.01,2013-04-30 13:20:00,
2013-04-30 08:25:00,71.4,57.3,29.72,WSW,250,2.0,13.0,61,0.00,,---,0.00,VWS V14.01,2013-04-30 13:25:00,
2013-04-30 08:30:00,71.7,57.1,29.67,WNW,283,1.0,13.0,60,0.00,,---,0.00,VWS V14.01,2013-04-30 13:30:00,
2013-04-30 08:34:00,72.1,57.5,29.67,SSW,198,3.0,11.0,60,0.00,,---,0.00,VWS V14.01,2013-04-30 13:34:00,
2013-04-30 08:39:00,72.3,56.7,29.72,WNW,290,3.0,15.0,58,0.00,,---,0.00,VWS V14.01,2013-04-30 13:39:00,
2013-04-30 08:44:00,72.6,57.0,29.72,SW,230,8.0,12.0,58,0.00,,---,0.00,VWS V14.01,2013-04-30 13:44:00,
2013-04-30 08:49:00,72.9,56.8,29.72,WSW,249,1.0,11.0,57,0.00,,---,0.00,VWS V14.01,2013-04-30 13:49:00,
2013-04-30 08:54:00,73.2,56.6,29.67,NW,307,0.0,12.0,56,0.00,,---,0.00,VWS V14.01,2013-04-30 13:54:00,
2013-04-30 08:59:00,73.3,56.7,29.67,SW,223,11.0,15.0,56,0.00,,---,0.00,VWS V14.01,2013-04-30 13:59:00,
2013-04-30 09:04:00,73.7,56.0,29.68,West,266,4.0,14.0,54,0.00,,---,0.00,VWS V14.01,2013-04-30 14:04:00,
2013-04-30 09:09:00,73.9,55.7,29.67,WSW,255,5.0,13.0,53,0.00,,---,0.00,VWS V14.01,2013-04-30 14:09:00,
2013-04-30 09:14:00,74.3,56.1,29.67,WSW,242,5.0,15.0,53,0.00,,---,0.00,VWS V14.01,2013-04-30 14:14:00,
2013-04-30 09:19:00,74.6,55.8,29.67,WSW,251,5.0,12.0,52,0.00,,---,0.00,VWS V14.01,2013-04-30 14:19:00,
2013-04-30 09:24:00,74.8,56.0,29.72,WSW,244,8.0,14.0,52,0.00,,---,0.00,VWS V14.01,2013-04-30 14:24:00,
2013-04-30 09:29:00,75.2,55.8,29.67,SW,235,11.0,14.0,51,0.00,,---,0.00,VWS V14.01,2013-04-30 14:29:00,
2013-04-30 09:34:00,75.4,55.5,29.72,West,276,2.0,16.0,50,0.00,,---,0.00,VWS V14.01,2013-04-30 14:34:00,
2013-04-30 09:39:00,75.7,55.2,29.67,West,266,3.0,14.0,49,0.00,,---,0.00,VWS V14.01,2013-04-30 14:39:00,
2013-04-30 09:44:00,76.0,54.3,29.67,SW,228,9.0,20.0,47,0.00,,---,0.00,VWS V14.01,2013-04-30 14:44:00,
2013-04-30 09:49:00,76.2,55.1,29.67,SW,216,10.0,14.0,48,0.00,,---,0.00,VWS V14.01,2013-04-30 14:49:00,
2013-04-30 09:54:00,76.1,55.0,29.66,WSW,256,11.0,13.0,48,0.00,,---,0.00,VWS V14.01,2013-04-30 14:54:00,
2013-04-30 09:59:00,76.3,55.2,29.66,WNW,286,4.0,19.0,48,0.00,,---,0.00,VWS V14.01,2013-04-30 14:59:00,
2013-04-30 10:04:00,76.7,55.5,29.71,NW,310,3.0,19.0,48,0.00,,---,0.00,VWS V14.01,2013-04-30 15:04:00,
2013-04-30 10:09:00,77.3,56.1,29.66,WSW,245,4.0,11.0,48,0.00,,---,0.00,VWS V14.01,2013-04-30 15:09:00,
2013-04-30 10:14:00,77.5,55.7,29.71,SW,222,5.0,18.0,47,0.00,,---,0.00,VWS V14.01,2013-04-30 15:14:00,
2013-04-30 10:19:00,77.4,55.6,29.66,SW,234,4.0,10.0,47,0.00,,---,0.00,VWS V14.01,2013-04-30 15:19:00,
2013-04-30 10:24:00,77.7,56.5,29.71,West,262,4.0,11.0,48,0.00,,---,0.00,VWS V14.01,2013-04-30 15:24:00,
2013-04-30 10:29:00,78.5,56.6,29.66,WSW,242,5.0,15.0,47,0.00,,---,0.00,VWS V14.01,2013-04-30 15:29:00,
2013-04-30 10:34:00,78.7,56.8,29.66,WNW,287,8.0,13.0,47,0.00,,---,0.00,VWS V14.01,2013-04-30 15:34:00,
2013-04-30 10:39:00,78.9,56.4,29.71,SE,138,4.0,13.0,46,0.00,,---,0.00,VWS V14.01,2013-04-30 15:39:00,
2013-04-30 10:44:00,79.0,56.5,29.70,SSE,151,2.0,17.0,46,0.00,,---,0.00,VWS V14.01,2013-04-30 15:44:00,
2013-04-30 10:49:00,79.7,57.1,29.66,SSE,159,4.0,8.0,46,0.00,,---,0.00,VWS V14.01,2013-04-30 15:49:00,
2013-04-30 10:54:00,80.0,56.8,29.70,WSW,250,4.0,9.0,45,0.00,,---,0.00,VWS V14.01,2013-04-30 15:54:00,
2013-04-30 10:59:00,80.2,56.3,29.70,WNW,293,10.0,13.0,44,0.00,,---,0.00,VWS V14.01,2013-04-30 15:59:00,
2013-04-30 11:04:00,80.4,57.1,29.70,WNW,283,0.0,11.0,45,0.00,,---,0.00,VWS V14.01,2013-04-30 16:04:00,
2013-04-30 11:09:00,80.4,56.5,29.70,WSW,240,2.0,15.0,44,0.00,,---,0.00,VWS V14.01,2013-04-30 16:09:00,
2013-04-30 11:14:00,80.4,55.9,29.66,WSW,242,17.0,17.0,43,0.00,,---,0.00,VWS V14.01,2013-04-30 16:14:00,
2013-04-30 11:19:00,80.3,55.8,29.66,SW,234,11.0,12.0,43,0.00,,---,0.00,VWS V14.01,2013-04-30 16:19:00,
2013-04-30 11:24:00,80.4,55.9,29.70,SW,234,6.0,18.0,43,0.00,,---,0.00,VWS V14.01,2013-04-30 16:24:00,
2013-04-30 11:29:00,81.2,56.6,29.66,SSW,207,2.0,17.0,43,0.00,,---,0.00,VWS V14.01,2013-04-30 16:29:00,
2013-04-30 11:34:00,81.8,56.5,29.66,SSE,168,4.0,9.0,42,0.00,,---,0.00,VWS V14.01,2013-04-30 16:34:00,
2013-04-30 11:39:00,82.1,56.1,29.71,West,276,9.0,15.0,41,0.00,,---,0.00,VWS V14.01,2013-04-30 16:39:00,
2013-04-30 11:44:00,82.1,56.1,29.66,West,266,0.0,11.0,41,0.00,,---,0.00,VWS V14.01,2013-04-30 16:44:00,
2013-04-30 11:49:00,82.8,57.4,29.66,SSW,205,4.0,9.0,42,0.00,,---,0.00,VWS V14.01,2013-04-30 16:49:00,
2013-04-30 11:54:00,83.0,56.2,29.71,South,186,7.0,11.0,40,0.00,,---,0.00,VWS V14.01,2013-04-30 16:54:00,
2013-04-30 11:59:00,83.0,55.5,29.71,South,176,8.0,18.0,39,0.00,,---,0.00,VWS V14.01,2013-04-30 16:59:00,
2013-04-30 12:04:00,82.9,55.4,29.71,SW,220,3.0,17.0,39,0.00,,---,0.00,VWS V14.01,2013-04-30 17:04:00,
2013-04-30 12:09:00,82.4,55.7,29.71,WNW,283,1.0,13.0,40,0.00,,---,0.00,VWS V14.01,2013-04-30 17:09:00,
2013-04-30 12:14:00,82.7,56.6,29.66,SW,232,4.0,7.0,41,0.00,,---,0.00,VWS V14.01,2013-04-30 17:14:00,
2013-04-30 12:19:00,83.2,55.7,29.70,WNW,286,4.0,11.0,39,0.00,,---,0.00,VWS V14.01,2013-04-30 17:19:00,
2013-04-30 12:24:00,83.8,55.5,29.66,SSW,201,2.0,8.0,38,0.00,,---,0.00,VWS V14.01,2013-04-30 17:24:00,
2013-04-30 12:29:00,83.7,56.1,29.71,SE,144,6.0,15.0,39,0.00,,---,0.00,VWS V14.01,2013-04-30 17:29:00,
2013-04-30 12:34:00,84.2,55.9,29.66,WSW,251,1.0,10.0,38,0.00,,---,0.00,VWS V14.01,2013-04-30 17:34:00,
2013-04-30 12:39:00,84.1,56.5,29.66,WNW,286,4.0,9.0,39,0.00,,---,0.00,VWS V14.01,2013-04-30 17:39:00,
2013-04-30 12:44:00,84.4,55.3,29.66,WSW,253,3.0,7.0,37,0.00,,---,0.00,VWS V14.01,2013-04-30 17:44:00,
2013-04-30 12:49:00,84.1,56.5,29.71,WSW,252,1.0,9.0,39,0.00,,---,0.00,VWS V14.01,2013-04-30 17:49:00,
2013-04-30 12:54:00,84.5,56.1,29.71,SW,228,4.0,14.0,38,0.00,,---,0.00,VWS V14.01,2013-04-30 17:54:00,
2013-04-30 12:59:00,84.2,55.9,29.71,WSW,251,4.0,15.0,38,0.00,,---,0.00,VWS V14.01,2013-04-30 17:59:00,
2013-04-30 13:04:00,84.0,56.4,29.71,WSW,240,3.0,13.0,39,0.00,,---,0.00,VWS V14.01,2013-04-30 18:04:00,
2013-04-30 13:09:00,84.4,56.8,29.70,SE,140,7.0,9.0,39,0.00,,---,0.00,VWS V14.01,2013-04-30 18:09:00,
2013-04-30 13:14:00,84.0,56.4,29.70,SSE,159,7.0,18.0,39,0.00,,---,0.00,VWS V14.01,2013-04-30 18:14:00,
2013-04-30 13:19:00,84.2,57.3,29.65,SSW,201,7.0,15.0,40,0.00,,---,0.00,VWS V14.01,2013-04-30 18:19:00,
2013-04-30 13:24:00,84.2,57.3,29.70,ESE,102,3.0,13.0,40,0.00,,---,0.00,VWS V14.01,2013-04-30 18:24:00,
2013-04-30 13:29:00,84.6,56.9,29.65,SW,222,1.0,10.0,39,0.00,,---,0.00,VWS V14.01,2013-04-30 18:29:00,
2013-04-30 13:34:00,84.5,56.8,29.70,SSE,164,4.0,15.0,39,0.00,,---,0.00,VWS V14.01,2013-04-30 18:34:00,
2013-04-30 13:39:00,84.7,57.7,29.69,SSW,205,5.0,12.0,40,0.00,,---,0.00,VWS V14.01,2013-04-30 18:39:00,
2013-04-30 13:44:00,84.9,56.5,29.69,SSE,150,3.0,19.0,38,0.00,,---,0.00,VWS V14.01,2013-04-30 18:44:00,
2013-04-30 13:49:00,84.8,57.1,29.64,SE,129,8.0,9.0,39,0.00,,---,0.00,VWS V14.01,2013-04-30 18:49:00,
2013-04-30 13:54:00,85.5,57.0,29.64,South,189,1.0,12.0,38,0.00,,---,0.00,VWS V14.01,2013-04-30 18:54:00,
2013-04-30 13:59:00,85.8,58.0,29.70,NW,317,6.0,9.0,39,0.00,,---,0.00,VWS V14.01,2013-04-30 18:59:00,
2013-04-30 14:04:00,85.5,57.0,29.70,SSW,193,9.0,16.0,38,0.00,,---,0.00,VWS V14.01,2013-04-30 19:04:00,
2013-04-30 14:09:00,85.6,57.8,29.65,WSW,237,3.0,12.0,39,0.00,,---,0.00,VWS V14.01,2013-04-30 19:09:00,
2013-04-30 14:14:00,85.0,56.6,29.65,SW,225,6.0,11.0,38,0.00,,---,0.00,VWS V14.01,2013-04-30 19:14:00,
2013-04-30 14:19:00,85.3,57.6,29.70,SSW,193,2.0,10.0,39,0.00,,---,0.00,VWS V14.01,2013-04-30 19:19:00,
2013-04-30 14:24:00,85.8,58.0,29.70,SSW,200,1.0,8.0,39,0.00,,---,0.00,VWS V14.01,2013-04-30 19:24:00,
2013-04-30 14:29:00,86.2,59.1,29.70,SSW,204,2.0,10.0,40,0.00,,---,0.00,VWS V14.01,2013-04-30 19:29:00,
2013-04-30 14:34:00,86.6,58.0,29.65,South,176,3.0,14.0,38,0.00,,---,0.00,VWS V14.01,2013-04-30 19:34:00,
2013-04-30 14:39:00,86.2,59.1,29.65,WNW,290,3.0,8.0,40,0.00,,---,0.00,VWS V14.01,2013-04-30 19:39:00,
2013-04-30 14:44:00,86.1,58.3,29.66,SW,226,2.0,13.0,39,0.00,,---,0.00,VWS V14.01,2013-04-30 19:44:00,
2013-04-30 14:49:00,86.1,59.0,29.71,SW,231,2.0,14.0,40,0.00,,---,0.00,VWS V14.01,2013-04-30 19:49:00,
2013-04-30 14:54:00,85.7,58.6,29.71,SSE,168,10.0,10.0,40,0.00,,---,0.00,VWS V14.01,2013-04-30 19:54:00,
2013-04-30 14:59:00,85.8,59.4,29.66,WSW,239,4.0,13.0,41,0.00,,---,0.00,VWS V14.01,2013-04-30 19:59:00,
2013-04-30 15:04:00,86.0,58.2,29.65,SSW,203,2.0,11.0,39,0.00,,---,0.00,VWS V14.01,2013-04-30 20:04:00,
2013-04-30 15:09:00,86.6,58.7,29.70,South,181,4.0,14.0,39,0.00,,---,0.00,VWS V14.01,2013-04-30 20:09:00,
2013-04-30 15:13:00,86.0,58.9,29.65,SSE,149,13.0,13.0,40,0.00,,---,0.00,VWS V14.01,2013-04-30 20:13:00,
2013-04-30 15:18:00,85.5,59.1,29.65,SSW,209,4.0,8.0,41,0.00,,---,0.00,VWS V14.01,2013-04-30 20:18:00,
2013-04-30 15:23:00,85.6,59.2,29.65,SSW,192,12.0,15.0,41,0.00,,---,0.00,VWS V14.01,2013-04-30 20:23:00,
2013-04-30 15:28:00,85.2,58.9,29.65,SSE,163,3.0,15.0,41,0.00,,---,0.00,VWS V14.01,2013-04-30 20:28:00,
2013-04-30 15:33:00,85.5,59.1,29.65,SSE,160,10.0,14.0,41,0.00,,---,0.00,VWS V14.01,2013-04-30 20:33:00,
2013-04-30 15:38:00,84.8,59.2,29.65,SSE,149,8.0,17.0,42,0.00,,---,0.00,VWS V14.01,2013-04-30 20:38:00,
2013-04-30 15:43:00,85.2,59.5,29.70,SSE,158,9.0,13.0,42,0.00,,---,0.00,VWS V14.01,2013-04-30 20:43:00,
2013-04-30 15:48:00,84.9,59.9,29.70,South,186,7.0,9.0,43,0.00,,---,0.00,VWS V14.01,2013-04-30 20:48:00,
2013-04-30 15:53:00,85.1,59.5,29.70,SW,214,15.0,15.0,42,0.00,,---,0.00,VWS V14.01,2013-04-30 20:53:00,
2013-04-30 15:58:00,84.4,59.5,29.65,SSE,161,3.0,9.0,43,0.00,,---,0.00,VWS V14.01,2013-04-30 20:58:00,
2013-04-30 16:03:00,84.1,59.9,29.65,SSW,202,5.0,15.0,44,0.00,,---,0.00,VWS V14.01,2013-04-30 21:03:00,
2013-04-30 16:08:00,85.2,60.2,29.65,SW,216,3.0,4.0,43,0.00,,---,0.00,VWS V14.01,2013-04-30 21:08:00,
2013-04-30 16:13:00,84.6,59.0,29.66,SW,221,3.0,9.0,42,0.00,,---,0.00,VWS V14.01,2013-04-30 21:13:00,
2013-04-30 16:18:00,84.1,58.5,29.71,SSE,157,1.0,14.0,42,0.00,,---,0.00,VWS V14.01,2013-04-30 21:18:00,
2013-04-30 16:23:00,83.5,58.7,29.71,SSE,167,14.0,14.0,43,0.00,,---,0.00,VWS V14.01,2013-04-30 21:23:00,
2013-04-30 16:28:00,83.6,58.8,29.65,SSW,199,4.0,13.0,43,0.00,,---,0.00,VWS V14.01,2013-04-30 21:28:00,
2013-04-30 16:33:00,83.8,58.9,29.65,NW,317,0.0,12.0,43,0.00,,---,0.00,VWS V14.01,2013-04-30 21:33:00,
2013-04-30 16:38:00,84.1,59.2,29.71,South,184,4.0,10.0,43,0.00,,---,0.00,VWS V14.01,2013-04-30 21:38:00,
2013-04-30 16:43:00,84.4,58.8,29.65,South,184,7.0,10.0,42,0.00,,---,0.00,VWS V14.01,2013-04-30 21:43:00,
2013-04-30 16:48:00,84.0,58.5,29.65,South,182,2.0,13.0,42,0.00,,---,0.00,VWS V14.01,2013-04-30 21:48:00,
2013-04-30 16:53:00,84.1,58.5,29.71,SSE,152,4.0,11.0,42,0.00,,---,0.00,VWS V14.01,2013-04-30 21:53:00,
2013-04-30 16:58:00,84.1,58.5,29.65,South,179,11.0,12.0,42,0.00,,---,0.00,VWS V14.01,2013-04-30 21:58:00,
2013-04-30 17:03:00,84.2,59.3,29.65,South,170,7.0,8.0,43,0.00,,---,0.00,VWS V14.01,2013-04-30 22:03:00,
2013-04-30 17:08:00,83.7,58.2,29.65,SSE,161,12.0,12.0,42,0.00,,---,0.00,VWS V14.01,2013-04-30 22:08:00,
2013-04-30 17:13:00,83.6,58.8,29.71,South,171,10.0,10.0,43,0.00,,---,0.00,VWS V14.01,2013-04-30 22:13:00,
2013-04-30 17:18:00,83.2,57.8,29.66,SSW,199,5.0,17.0,42,0.00,,---,0.00,VWS V14.01,2013-04-30 22:18:00,
2013-04-30 17:23:00,82.8,58.0,29.71,SSE,166,9.0,14.0,43,0.00,,---,0.00,VWS V14.01,2013-04-30 22:23:00,
2013-04-30 17:28:00,82.9,58.1,29.66,South,185,3.0,16.0,43,0.00,,---,0.00,VWS V14.01,2013-04-30 22:28:00,
2013-04-30 17:33:00,82.8,58.7,29.71,South,188,10.0,11.0,44,0.00,,---,0.00,VWS V14.01,2013-04-30 22:33:00,
2013-04-30 17:38:00,82.6,57.9,29.71,SSE,153,8.0,13.0,43,0.00,,---,0.00,VWS V14.01,2013-04-30 22:38:00,
2013-04-30 17:43:00,82.5,57.8,29.66,South,178,11.0,11.0,43,0.00,,---,0.00,VWS V14.01,2013-04-30 22:43:00,
2013-04-30 17:48:00,82.4,57.7,29.66,SSW,192,7.0,17.0,43,0.00,,---,0.00,VWS V14.01,2013-04-30 22:48:00,
2013-04-30 17:53:00,82.1,57.4,29.71,South,191,14.0,16.0,43,0.00,,---,0.00,VWS V14.01,2013-04-30 22:53:00,
2013-04-30 17:58:00,82.0,58.0,29.71,SSW,193,1.0,17.0,44,0.00,,---,0.00,VWS V14.01,2013-04-30 22:58:00,
2013-04-30 18:03:00,81.8,57.8,29.66,South,183,13.0,13.0,44,0.00,,---,0.00,VWS V14.01,2013-04-30 23:03:00,
2013-04-30 18:08:00,81.7,57.0,29.66,SSE,165,3.0,13.0,43,0.00,,---,0.00,VWS V14.01,2013-04-30 23:08:00,
2013-04-30 18:13:00,81.4,57.4,29.66,SSE,156,0.0,6.0,44,0.00,,---,0.00,VWS V14.01,2013-04-30 23:13:00,
2013-04-30 18:18:00,81.4,58.0,29.66,South,176,4.0,13.0,45,0.00,,---,0.00,VWS V14.01,2013-04-30 23:18:00,
2013-04-30 18:23:00,81.1,57.2,29.66,South,176,3.0,11.0,44,0.00,,---,0.00,VWS V14.01,2013-04-30 23:23:00,
2013-04-30 18:28:00,80.9,57.6,29.66,South,177,10.0,13.0,45,0.00,,---,0.00,VWS V14.01,2013-04-30 23:28:00,
2013-04-30 18:33:00,80.7,56.8,29.71,South,171,3.0,16.0,44,0.00,,---,0.00,VWS V14.01,2013-04-30 23:33:00,
2013-04-30 18:38:00,80.5,57.2,29.72,South,180,7.0,10.0,45,0.00,,---,0.00,VWS V14.01,2013-04-30 23:38:00,
2013-04-30 18:43:00,80.2,57.0,29.67,SSE,150,6.0,8.0,45,0.00,,---,0.00,VWS V14.01,2013-04-30 23:43:00,
2013-04-30 18:48:00,80.0,56.2,29.72,SSW,207,8.0,12.0,44,0.00,,---,0.00,VWS V14.01,2013-04-30 23:48:00,
2013-04-30 18:53:00,79.8,55.3,29.67,South,190,2.0,8.0,43,0.00,,---,0.00,VWS V14.01,2013-04-30 23:53:00,
2013-04-30 18:58:00,79.6,55.8,29.67,South,172,9.0,15.0,44,0.00,,---,0.00,VWS V14.01,2013-04-30 23:58:00,
2013-04-30 19:03:00,79.5,55.1,29.67,SSW,194,9.0,9.0,43,0.00,,---,0.00,VWS V14.01,2013-05-01 00:03:00,
2013-04-30 19:08:00,79.3,55.5,29.67,SSE,156,4.0,10.0,44,0.00,,---,0.00,VWS V14.01,2013-05-01 00:08:00,
2013-04-30 19:13:00,79.1,55.3,29.67,SSW,209,5.0,10.0,44,0.00,,---,0.00,VWS V14.01,2013-05-01 00:13:00,
2013-04-30 19:18:00,78.8,54.4,29.72,South,187,3.0,9.0,43,0.00,,---,0.00,VWS V14.01,2013-05-01 00:18:00,
2013-04-30 19:23:00,78.7,55.0,29.67,South,186,6.0,8.0,44,0.00,,---,0.00,VWS V14.01,2013-05-01 00:23:00,
2013-04-30 19:28:00,78.4,54.1,29.73,South,175,7.0,12.0,43,0.00,,---,0.00,VWS V14.01,2013-05-01 00:28:00,
2013-04-30 19:33:00,78.1,54.4,29.68,SSW,201,2.0,3.0,44,0.00,,---,0.00,VWS V14.01,2013-05-01 00:33:00,
2013-04-30 19:38:00,77.7,54.1,29.68,SSE,155,8.0,10.0,44,0.00,,---,0.00,VWS V14.01,2013-05-01 00:38:00,
2013-04-30 19:43:00,77.5,54.5,29.73,SSE,152,4.0,6.0,45,0.00,,---,0.00,VWS V14.01,2013-05-01 00:43:00,
2013-04-30 19:48:00,77.3,54.3,29.68,South,184,0.0,4.0,45,0.00,,---,0.00,VWS V14.01,2013-05-01 00:48:00,
2013-04-30 19:53:00,77.0,54.7,29.68,SSW,200,0.0,3.0,46,0.00,,---,0.00,VWS V14.01,2013-05-01 00:53:00,
2013-04-30 19:58:00,76.7,54.4,29.68,South,171,0.0,2.0,46,0.00,,---,0.00,VWS V14.01,2013-05-01 00:58:00,
2013-04-30 20:03:00,76.3,54.6,29.74,SSE,162,0.0,3.0,47,0.00,,---,0.00,VWS V14.01,2013-05-01 01:03:00,
2013-04-30 20:08:00,75.9,54.8,29.74,SSE,157,2.0,2.0,48,0.00,,---,0.00,VWS V14.01,2013-05-01 01:08:00,
2013-04-30 20:13:00,75.7,54.6,29.69,SSE,168,0.0,3.0,48,0.00,,---,0.00,VWS V14.01,2013-05-01 01:13:00,
2013-04-30 20:18:00,75.5,54.5,29.69,SSW,196,0.0,3.0,48,0.00,,---,0.00,VWS V14.01,2013-05-01 01:18:00,
2013-04-30 20:23:00,75.3,54.8,29.69,SSE,150,0.0,4.0,49,0.00,,---,0.00,VWS V14.01,2013-05-01 01:23:00,
2013-04-30 20:28:00,74.9,54.5,29.69,South,172,0.0,4.0,49,0.00,,---,0.00,VWS V14.01,2013-05-01 01:28:00,
2013-04-30 20:33:00,74.4,54.6,29.75,South,173,0.0,2.0,50,0.00,,---,0.00,VWS V14.01,2013-05-01 01:33:00,
2013-04-30 20:38:00,74.0,54.7,29.70,South,177,0.0,3.0,51,0.00,,---,0.00,VWS V14.01,2013-05-01 01:38:00,
2013-04-30 20:43:00,73.6,54.9,29.75,South,177,0.0,0.0,52,0.00,,---,0.00,VWS V14.01,2013-05-01 01:43:00,
2013-04-30 20:48:00,73.1,55.0,29.70,South,176,0.0,0.0,53,0.00,,---,0.00,VWS V14.01,2013-05-01 01:48:00,
2013-04-30 20:53:00,72.6,55.0,29.75,South,177,0.0,1.0,54,0.00,,---,0.00,VWS V14.01,2013-05-01 01:53:00,
2013-04-30 20:58:00,72.4,54.8,29.75,South,177,0.0,3.0,54,0.00,,---,0.00,VWS V14.01,2013-05-01 01:58:00,
2013-04-30 21:03:00,72.3,54.7,29.71,South,176,1.0,2.0,54,0.00,,---,0.00,VWS V14.01,2013-05-01 02:03:00,
2013-04-30 21:08:00,72.4,54.3,29.76,SSE,160,0.0,2.0,53,0.00,,---,0.00,VWS V14.01,2013-05-01 02:08:00,
2013-04-30 21:13:00,72.3,54.2,29.71,South,189,0.0,2.0,53,0.00,,---,0.00,VWS V14.01,2013-05-01 02:13:00,
2013-04-30 21:18:00,72.1,54.0,29.76,South,189,0.0,2.0,53,0.00,,---,0.00,VWS V14.01,2013-05-01 02:18:00,
2013-04-30 21:23:00,71.8,53.8,29.72,SSE,152,0.0,3.0,53,0.00,,---,0.00,VWS V14.01,2013-05-01 02:23:00,
2013-04-30 21:28:00,71.7,53.7,29.72,South,175,0.0,2.0,53,0.00,,---,0.00,VWS V14.01,2013-05-01 02:28:00,
2013-04-30 21:33:00,71.5,53.5,29.76,South,175,0.0,2.0,53,0.00,,---,0.00,VWS V14.01,2013-05-01 02:33:00,
2013-04-30 21:37:00,71.2,53.2,29.77,South,176,1.0,1.0,53,0.00,,---,0.00,VWS V14.01,2013-05-01 02:37:00,
2013-04-30 21:42:00,71.1,53.6,29.77,South,176,0.0,1.0,54,0.00,,---,0.00,VWS V14.01,2013-05-01 02:42:00,
2013-04-30 21:47:00,70.8,53.3,29.72,South,176,0.0,1.0,54,0.00,,---,0.00,VWS V14.01,2013-05-01 02:47:00,
2013-04-30 21:52:00,70.5,53.1,29.77,SSE,157,0.0,0.0,54,0.00,,---,0.00,VWS V14.01,2013-05-01 02:52:00,
2013-04-30 21:57:00,70.3,53.4,29.78,SSE,157,0.0,0.0,55,0.00,,---,0.00,VWS V14.01,2013-05-01 02:57:00,
2013-04-30 22:02:00,69.8,53.4,29.78,SSE,157,0.0,0.0,56,0.00,,---,0.00,VWS V14.01,2013-05-01 03:02:00,
2013-04-30 22:07:00,69.7,53.3,29.78,SSE,157,0.0,0.0,56,0.00,,---,0.00,VWS V14.01,2013-05-01 03:07:00,
2013-04-30 22:12:00,69.4,53.0,29.73,SSE,157,0.0,0.0,56,0.00,,---,0.00,VWS V14.01,2013-05-01 03:12:00,
2013-04-30 22:17:00,69.3,53.0,29.78,SSE,157,0.0,1.0,56,0.00,,---,0.00,VWS V14.01,2013-05-01 03:17:00,
2013-04-30 22:22:00,69.4,53.0,29.78,South,170,2.0,2.0,56,0.00,,---,0.00,VWS V14.01,2013-05-01 03:22:00,
2013-04-30 22:27:00,69.6,53.2,29.74,South,170,0.0,0.0,56,0.00,,---,0.00,VWS V14.01,2013-05-01 03:27:00,
2013-04-30 22:32:00,69.5,53.1,29.74,South,170,0.0,0.0,56,0.00,,---,0.00,VWS V14.01,2013-05-01 03:32:00,
2013-04-30 22:37:00,69.4,53.0,29.74,South,170,0.0,1.0,56,0.00,,---,0.00,VWS V14.01,2013-05-01 03:37:00,
2013-04-30 22:42:00,69.0,53.2,29.79,SSE,166,1.0,1.0,57,0.00,,---,0.00,VWS V14.01,2013-05-01 03:42:00,
2013-04-30 22:47:00,68.8,53.0,29.79,SSE,166,0.0,1.0,57,0.00,,---,0.00,VWS V14.01,2013-05-01 03:47:00,
2013-04-30 22:52:00,68.9,53.1,29.74,SSE,166,0.0,1.0,57,0.00,,---,0.00,VWS V14.01,2013-05-01 03:52:00,
2013-04-30 22:57:00,69.0,53.2,29.74,SSE,160,1.0,5.0,57,0.00,,---,0.00,VWS V14.01,2013-05-01 03:57:00,
2013-04-30 23:01:00,69.2,52.8,29.79,South,180,0.0,0.0,56,0.00,,---,0.00,VWS V14.01,2013-05-01 04:01:00,
2013-04-30 23:06:00,69.3,53.0,29.79,South,174,0.0,3.0,56,0.00,,---,0.00,VWS V14.01,2013-05-01 04:06:00,
2013-04-30 23:11:00,69.4,53.0,29.79,South,169,1.0,1.0,56,0.00,,---,0.00,VWS V14.01,2013-05-01 04:11:00,
2013-04-30 23:16:00,69.2,52.8,29.74,South,181,1.0,4.0,56,0.00,,---,0.00,VWS V14.01,2013-05-01 04:16:00,
2013-04-30 23:21:00,69.1,52.8,29.79,SSE,147,2.0,2.0,56,0.00,,---,0.00,VWS V14.01,2013-05-01 04:21:00,
2013-04-30 23:26:00,68.9,53.1,29.74,SSE,149,0.0,1.0,57,0.00,,---,0.00,VWS V14.01,2013-05-01 04:26:00,
2013-04-30 23:31:00,68.7,52.9,29.74,SSE,149,0.0,1.0,57,0.00,,---,0.00,VWS V14.01,2013-05-01 04:31:00,
2013-04-30 23:36:00,68.6,52.8,29.74,SSE,150,1.0,2.0,57,0.00,,---,0.00,VWS V14.01,2013-05-01 04:36:00,
2013-04-30 23:41:00,68.6,53.2,29.79,SSE,150,1.0,2.0,58,0.00,,---,0.00,VWS V14.01,2013-05-01 04:41:00,
2013-04-30 23:46:00,68.7,53.3,29.79,SSE,167,0.0,4.0,58,0.00,,---,0.00,VWS V14.01,2013-05-01 04:46:00,
2013-04-30 23:51:00,68.6,53.2,29.79,SSE,168,1.0,1.0,58,0.00,,---,0.00,VWS V14.01,2013-05-01 04:51:00,
2013-04-30 23:56:00,68.8,53.4,29.79,South,177,2.0,2.0,58,0.00,,---,0.00,VWS V14.01,2013-05-01 04:56:00,